Weather History for Knox, IN

Change the Weather History Date:

Tuesday, June 5, 2012

  Actual Average (KVPZ) Record (KVPZ)
Temperature  
Mean Temperature 59 °F 66 °F  
Max Temperature 97 °F 77 °F 89 °F (2005)
Min Temperature 47 °F 55 °F 41 °F (1998)
Degree Days  
Heating Degree Days 6 3  
Month to date heating degree days 15  
Since 1 June heating degree days 15  
Since 1 July heating degree days 6294  
Cooling Degree Days 0 4  
Month to date cooling degree days 17  
Year to date cooling degree days 64  
Since 1 June cooling degree days 17  
Growing Degree Days 9 (Base 50)    
Moisture  
Dew Point 47 °F    
Average Humidity 66    
Maximum Humidity 97    
Minimum Humidity 35    
Precipitation  
Precipitation 0.00 in 0.14 in 1.04 in (2001)
Month to date precipitation 0.67  
Year to date precipitation 13.65  
Sea Level Pressure  
Sea Level Pressure 29.97 in    
Wind  
Wind Speed 5 mph (NNE)    
Max Wind Speed 17 mph    
Max Gust Speed 22 mph    
Visibility 10 miles    
Events      
T = Trace of Precipitation, MM = Missing Value Source: NWS Daily Summary

Daily Weather History Graph

Daily Weather History Graph

Search for Another Location

Airport:

Trip Planner

Search our weather history database for the weather conditions in past years. The results will help you decide how hot, cold, wet, or windy it might be!

Date:

Astronomy

Jun. 05, 2012 Rise Set
Actual Time 5:14 AM CDT 8:16 PM CDT
Civil Twilight 4:40 AM CDT 8:50 PM CDT
Nautical Twilight 3:58 AM CDT 9:32 PM CDT
Astronomical Twilight 3:08 AM CDT 10:23 PM CDT
Moon 9:40 PM CDT (6/5) 6:25 AM CDT (6/5)
Length of Visible Light 16h 09m
Length of Day
15h 02m
Full, 98% of the Moon is Illuminated
Jun 5
Full
Jun 11
Last Quarter
Jun 19
New
Jun 26
First Quarter
Jul 3
Full

Hourly Weather History & Observations

Time (CDT) Temp. Dew Point Humidity Pressure Visibility Wind Dir Wind Speed Gust Speed Precip Events Conditions
12:15 AM 51.6 °F 48.7 °F 90% 29.91 in 10.0 mi NNW 3.5 mph - N/A   Clear
12:55 AM 52.0 °F 48.7 °F 89% 29.91 in 10.0 mi Calm Calm - N/A   Clear
1:15 AM 52.3 °F 49.1 °F 89% 29.91 in 10.0 mi Calm Calm - N/A   Clear
1:35 AM 51.6 °F 48.7 °F 90% 29.91 in 10.0 mi Calm Calm - N/A   Clear
1:55 AM 51.1 °F 48.7 °F 92% 29.91 in 10.0 mi NW 3.5 mph - N/A   Clear
2:15 AM 50.7 °F 48.4 °F 92% 29.91 in 10.0 mi NNW 3.5 mph - N/A   Clear
2:35 AM 49.8 °F 48.2 °F 94% 29.92 in 10.0 mi Calm Calm - N/A   Clear
2:55 AM 49.6 °F 48.4 °F 95% 29.91 in 10.0 mi Calm Calm - N/A   Clear
3:15 AM 49.6 °F 48.4 °F 95% 29.92 in 10.0 mi Calm Calm - N/A   Clear
3:35 AM 49.6 °F 48.4 °F 95% 29.92 in 10.0 mi NNE 4.6 mph - N/A   Clear
3:55 AM 49.5 °F 48.2 °F 95% 29.93 in 10.0 mi Calm Calm - N/A   Clear
4:15 AM 48.9 °F 47.7 °F 95% 29.93 in 10.0 mi Calm Calm - N/A   Clear
4:35 AM 49.3 °F 48.2 °F 96% 29.94 in 10.0 mi NNE 3.5 mph - N/A   Clear
4:55 AM 49.1 °F 48.0 °F 96% 29.94 in 10.0 mi Calm Calm - N/A   Clear
5:15 AM 49.1 °F 47.8 °F 95% 29.95 in 10.0 mi NNE 3.5 mph - N/A   Clear
5:35 AM 47.5 °F 46.4 °F 96% 29.95 in 10.0 mi Calm Calm - N/A   Clear
5:55 AM 48.4 °F 47.5 °F 97% 29.96 in 10.0 mi Calm Calm - N/A   Scattered Clouds
6:15 AM 50.5 °F 49.5 °F 96% 29.97 in 10.0 mi Calm Calm - N/A   Scattered Clouds
6:35 AM 52.7 °F 51.1 °F 94% 29.98 in 10.0 mi NE 3.5 mph - N/A   Clear
6:55 AM 55.0 °F 52.2 °F 90% 29.98 in 10.0 mi NE 4.6 mph - N/A   Clear
7:15 AM 56.7 °F 52.3 °F 85% 29.99 in 10.0 mi NE 8.1 mph - N/A   Clear
7:35 AM 58.1 °F 52.0 °F 80% 30.00 in 10.0 mi NE 8.1 mph - N/A   Clear
7:55 AM 59.2 °F 51.3 °F 75% 30.00 in 7.0 mi NE 6.9 mph - N/A   Clear
8:15 AM 60.4 °F 51.1 °F 71% 30.00 in 10.0 mi NE 8.1 mph - N/A   Clear
8:35 AM 61.5 °F 50.4 °F 67% 30.00 in 10.0 mi NNE 8.1 mph - N/A   Clear
8:55 AM 62.8 °F 49.3 °F 61% 30.00 in 10.0 mi NE 8.1 mph - N/A   Clear
9:15 AM 63.3 °F 48.4 °F 58% 29.99 in 10.0 mi NE 9.2 mph - N/A   Clear
9:35 AM 64.8 °F 49.1 °F 57% 29.99 in 10.0 mi NNE 9.2 mph - N/A   Clear
9:55 AM 65.3 °F 48.0 °F 54% 30.00 in 10.0 mi ENE 5.8 mph - N/A   Clear
10:15 AM 66.2 °F 47.1 °F 50% 30.00 in 10.0 mi NE 6.9 mph - N/A   Clear
10:35 AM 67.3 °F 46.8 °F 48% 30.00 in 10.0 mi North 10.4 mph 16.1 mph N/A   Clear
10:55 AM 68.0 °F 45.7 °F 45% 30.00 in 10.0 mi North 8.1 mph 17.3 mph N/A   Clear
11:15 AM 68.5 °F 46.6 °F 45% 30.00 in 10.0 mi ENE 13.8 mph 18.4 mph N/A   Clear
11:35 AM 68.9 °F 46.0 °F 44% 29.99 in 10.0 mi North 9.2 mph 18.4 mph N/A   Scattered Clouds
11:55 AM 69.6 °F 46.2 °F 43% 29.99 in 10.0 mi NE 6.9 mph - N/A   Mostly Cloudy
12:15 PM 70.2 °F 46.2 °F 42% 29.98 in 10.0 mi NE 13.8 mph 18.4 mph N/A   Scattered Clouds
12:35 PM 70.7 °F 45.7 °F 41% 29.98 in 10.0 mi NNE 17.3 mph - N/A   Scattered Clouds
12:55 PM 69.8 °F 45.5 °F 42% 29.98 in 10.0 mi NNE 11.5 mph 18.4 mph N/A   Mostly Cloudy
1:15 PM 70.3 °F 45.9 °F 41% 29.98 in 10.0 mi NE 15.0 mph 21.9 mph N/A   Mostly Cloudy
1:35 PM 69.4 °F 45.5 °F 42% 29.98 in 10.0 mi NE 10.4 mph - N/A   Overcast
1:55 PM 69.1 °F 45.3 °F 42% 29.98 in 10.0 mi ENE 12.7 mph 17.3 mph N/A   Overcast
2:15 PM 68.9 °F 44.6 °F 42% 29.98 in 10.0 mi ENE 13.8 mph - N/A   Overcast
2:35 PM 69.8 °F 44.4 °F 40% 29.98 in 10.0 mi ENE 8.1 mph - N/A   Overcast
2:55 PM 70.2 °F 43.7 °F 38% 29.98 in 10.0 mi NE 12.7 mph 19.6 mph N/A   Overcast
3:15 PM 70.5 °F 43.0 °F 37% 29.98 in 10.0 mi NE 11.5 mph 17.3 mph N/A   Overcast
3:35 PM 70.3 °F 43.3 °F 38% 29.97 in 10.0 mi NE 11.5 mph 16.1 mph N/A   Overcast
3:55 PM 70.5 °F 43.2 °F 37% 29.97 in 10.0 mi East 15.0 mph - N/A   Mostly Cloudy
4:15 PM 70.5 °F 42.6 °F 36% 29.96 in 10.0 mi NE 8.1 mph 17.3 mph N/A   Mostly Cloudy
4:35 PM 69.8 °F 43.0 °F 38% 29.96 in 10.0 mi East 9.2 mph 20.7 mph N/A   Overcast
4:55 PM 70.3 °F 42.4 °F 36% 29.96 in 10.0 mi NE 13.8 mph - N/A   Mostly Cloudy
5:15 PM 69.4 °F 41.9 °F 37% 29.96 in 10.0 mi NNE 6.9 mph - N/A   Mostly Cloudy
5:35 PM 70.5 °F 41.9 °F 35% 29.96 in 10.0 mi East 12.7 mph - N/A   Mostly Cloudy
5:55 PM 71.2 °F 41.9 °F 35% 29.96 in 10.0 mi ENE 11.5 mph - N/A   Mostly Cloudy
6:15 PM 68.9 °F 41.4 °F 37% 29.96 in 10.0 mi ENE 9.2 mph - N/A   Mostly Cloudy
6:35 PM 68.7 °F 44.8 °F 42% 29.96 in 10.0 mi North 11.5 mph - N/A   Scattered Clouds
6:55 PM 67.8 °F 49.1 °F 51% 29.97 in 10.0 mi North 11.5 mph - N/A   Scattered Clouds
7:15 PM 66.7 °F 49.1 °F 53% 29.97 in 10.0 mi NNW 10.4 mph - N/A   Mostly Cloudy
7:35 PM 65.1 °F 49.1 °F 56% 29.97 in 10.0 mi North 9.2 mph - N/A   Scattered Clouds
7:55 PM 63.5 °F 49.1 °F 59% 29.97 in 10.0 mi North 8.1 mph - N/A   Clear
8:35 PM 60.3 °F 49.1 °F 67% 29.98 in 10.0 mi North 8.1 mph - N/A   Clear
9:15 PM 57.6 °F 48.6 °F 72% 29.99 in 10.0 mi North 6.9 mph - N/A   Clear
9:55 PM 55.2 °F 49.6 °F 81% 30.00 in 10.0 mi NNE 5.8 mph - N/A   Clear
10:15 PM 54.0 °F 49.5 °F 85% 30.00 in 10.0 mi NNE 6.9 mph - N/A   Scattered Clouds
10:35 PM 54.9 °F 50.5 °F 85% 30.01 in 10.0 mi NNE 5.8 mph - N/A   Mostly Cloudy
10:55 PM 55.6 °F 50.9 °F 84% 30.01 in 10.0 mi NE 3.5 mph - N/A   Overcast
11:15 PM 55.2 °F 50.9 °F 85% 30.01 in 10.0 mi Calm Calm - N/A   Scattered Clouds
11:55 PM 53.6 °F 50.4 °F 89% 30.02 in 10.0 mi Calm Calm - N/A   Clear